[[{"header":{"parameterUnit":"m.s-1","parameterCategory":1,"la1":30.2991,"la2":30.254,"lo1":-89.0895,"lo2":-89.0444,"dy":0.0017,"dx":0.0017,"nx":28,"ny":28,"refTime":"2025-06-07T09:00:00:Z","depth":0,"parameterNumber":2,"parameterNumberName":"U-component_of_WINDS"},"data":[0,0,0,0,0,0,0,0,0,0,0,0,0,0,0,0,0,0,0,0,0,0,0,0,0,0,0,0,0,0,0,0,0,0,0,0,0,0,0,0,0,0,0,0,0,0,0,0,0,0,0,0,0,0,0,0,0,0,4.7217,4.7219,0,4.7356,4.7358,4.7359,4.731,4.7307,4.7304,4.7301,4.7445,4.7451,4.7458,0,0,0,0,0,0,0,0,0,0,0,0,0,4.6908,4.6914,4.7217,4.7219,4.7221,4.7356,4.7358,4.736,4.731,4.7307,4.7303,4.7299,4.7442,4.745,4.7458,0,0,0,0,0,0,0,0,0,0,0,0,0,4.7044,4.6916,4.7217,4.7212,4.7213,4.7355,4.7358,4.736,4.7311,4.7306,4.7302,4.7297,4.744,4.745,4.7459,4.7615,0,0,4.749,4.7495,0,0,0,0,0,0,0,0,4.7037,4.7056,4.7211,4.7213,4.7214,4.7311,4.7302,4.7446,4.7312,4.7274,4.7301,4.7295,4.7404,4.7417,4.7453,4.7622,4.7628,4.7491,4.7497,4.7502,4.7505,0,0,0,0,0,0,0,4.7027,4.705,4.7272,4.7213,4.7215,4.7203,4.7217,4.7329,4.7364,4.7277,4.7274,4.7291,4.7404,4.7443,4.7456,4.763,4.7491,4.75,4.7506,4.751,4.7929,4.7934,0,0,0,0,0,0,4.7017,4.7042,4.7268,4.7276,4.7112,4.7212,4.7228,4.7285,4.7362,4.7369,4.7295,4.7288,4.7428,4.7444,4.7461,4.7644,4.7502,4.7511,4.7517,4.7924,4.793,4.7936,0,0,0,0,0,0,4.7011,4.7038,4.7262,4.7158,4.7186,4.7223,4.7286,4.729,4.7329,4.7375,4.7381,4.7329,4.7425,4.7447,4.7576,4.7649,4.7516,4.7525,4.7918,4.7926,4.7933,4.8015,0,0,0,0,0,0,4.7002,4.7036,4.7096,4.716,4.7192,4.7375,4.7291,4.7296,4.7346,4.7339,4.7409,4.7416,4.7423,4.7561,4.7586,4.766,4.7533,4.7911,4.7921,4.793,4.8006,4.8024,4.804,0,0,0,0,0,4.6991,4.7114,4.7099,4.7126,4.7267,4.7379,4.7397,4.7403,4.7353,4.7412,4.7442,4.7414,4.7638,4.7575,4.7602,4.7681,4.7907,4.7919,4.793,4.7998,4.8021,4.804,0,0,0,0,0,0,4.7059,4.7123,4.7106,4.7254,4.7311,4.7371,4.7446,4.7428,4.7501,4.7491,4.7496,4.7512,4.7644,4.7676,4.7605,4.7833,4.7765,4.7782,4.7807,4.7829,4.7846,4.7834,4.7541,0,0,0,0,0,4.7091,4.7176,4.7228,4.7353,4.7383,4.741,4.7459,4.7458,4.7518,4.7543,4.7581,4.7641,4.7724,4.7779,4.7859,4.8011,4.8023,4.8078,4.8096,4.811,4.8124,4.8202,4.8226,4.7973,4.7973,4.7973,0,0,4.7158,4.7203,4.7257,4.7368,4.7412,4.75,4.7431,4.7528,4.7592,4.7558,4.768,4.7711,4.7778,4.7918,4.7982,4.7949,4.8197,4.8124,4.8135,4.8141,4.8217,4.8241,4.8262,4.7981,4.7979,4.7978,0,0,4.7323,4.7368,4.7475,4.7521,4.7588,4.7605,4.7631,4.7693,4.7711,4.7835,4.7809,4.7887,4.8032,4.8078,4.8121,4.8303,4.8278,4.8329,4.8418,4.8495,4.8515,4.8532,4.8593,4.8615,4.8344,4.8344,4.8344,0,4.7398,4.7529,4.7533,4.7631,4.7678,4.765,4.7757,4.7802,4.7893,4.7926,4.7888,4.8066,4.8109,4.8258,4.8302,4.8339,4.8366,4.832,4.8511,4.8529,4.8546,4.8603,4.8627,4.8349,4.8349,4.8348,4.8347,0,4.7615,4.7706,4.7785,4.7871,4.7928,4.8031,4.8049,4.8107,4.8101,4.8121,4.8246,4.8297,4.8384,4.842,4.8417,4.8568,4.8545,4.851,4.844,4.8575,4.8629,4.8652,4.8357,4.8355,4.8353,4.8352,0,0,4.7826,4.7912,4.794,4.7977,4.8049,4.8119,4.822,4.8304,4.8351,4.8415,4.8497,4.8619,4.8586,4.8635,4.8636,4.8704,4.8839,4.866,4.8661,4.8688,4.9005,4.9028,4.9054,4.8825,4.8829,4.8833,4.8998,0,4.7994,4.8169,4.8175,4.8334,4.8416,4.839,4.8477,4.853,4.8552,4.8625,4.865,4.8734,4.8686,4.8714,4.8781,4.8809,4.8902,4.8798,4.8899,4.8903,4.8879,4.9083,4.9108,4.9261,4.9019,4.9023,4.9026,0,4.8214,4.8281,4.8449,4.8505,4.854,4.8618,4.8694,4.8765,4.8824,4.8835,4.8888,4.8879,4.898,4.8909,4.9047,4.8975,4.9017,4.9038,4.9044,4.905,4.897,4.9091,4.9311,4.9332,4.906,4.9057,4.9055,0,4.8345,4.8479,4.8595,4.8628,4.8699,4.8753,4.8785,4.884,4.8889,4.8956,4.8987,4.9066,4.9108,4.9169,4.918,4.9129,4.9317,4.9248,4.9327,4.9326,4.9365,4.9361,4.959,4.9399,4.9399,4.9398,4.9398,0,4.853,4.8632,4.8654,4.8726,4.8839,4.8844,4.8956,4.8984,4.9032,4.9107,4.9091,4.9162,4.9175,4.9248,4.9259,4.9369,4.9389,4.9399,4.94,4.9398,4.9396,4.9423,4.9411,4.9404,4.9403,4.9402,4.9401,0,4.8695,4.8715,4.8838,4.8894,4.8911,4.8991,4.9038,4.9106,4.9126,4.9221,4.9243,4.9274,4.936,4.9378,4.948,4.9487,4.9616,4.9609,4.9595,4.9593,4.9669,4.966,4.992,4.9952,4.9744,4.9746,4.9747,0,4.881,4.8887,4.895,4.8999,4.9033,4.9112,4.9161,4.917,4.9222,4.9294,4.9352,4.9435,4.9502,4.9639,4.9671,4.9748,4.9739,4.9825,4.9751,4.9745,4.9735,4.9729,4.9735,4.9838,4.984,4.9842,4.9844,0,4.901,4.9015,4.9086,4.9161,4.922,4.9279,4.9336,4.9377,4.9393,4.9452,4.9538,4.959,4.9692,4.9774,4.9851,4.9883,4.9865,4.9867,4.9888,4.9886,4.9873,4.9876,4.963,4.986,4.9859,4.9858,4.9857,4.9856,4.915,4.9216,4.927,4.9349,4.9392,4.9445,4.9509,4.9537,4.9608,4.9691,4.9693,4.9786,4.9841,4.9941,4.9978,5.0051,5.0024,5.0056,5.0063,5.007,5.0075,4.9865,5.0066,5.0065,5.0065,5.0064,5.0064,0,4.9345,4.9378,4.9451,4.9529,4.9591,4.957,4.963,4.9683,4.9765,4.9818,4.9883,4.998,5.0059,5.0096,5.0174,5.0224,5.0218,5.0244,5.0238,5.0245,5.0097,5.0068,5.0247,5.0247,5.0247,5.0247,5.0247,5.0247,4.9453,4.9562,4.9574,4.9704,4.9736,4.9826,4.9862,4.991,4.9951,5.006,5.0125,5.0148,5.0194,5.0274,5.0345,5.0354,5.0381,5.041,5.0415,5.0275,5.0256,5.0238,5.0211,5.0417,5.0418,5.0557,5.0558,5.0559]},{"header":{"parameterUnit":"m.s-1","parameterCategory":1,"la1":30.2991,"la2":30.254,"lo1":-89.0895,"lo2":-89.0444,"dy":0.0017,"dx":0.0017,"nx":28,"ny":28,"refTime":"2025-06-07T09:00:00:Z","depth":0,"parameterNumber":3,"parameterNumberName":"V-component_of_WINDS"},"data":[0,0,0,0,0,0,0,0,0,0,0,0,0,0,0,0,0,0,0,0,0,0,0,0,0,0,0,0,0,0,0,0,0,0,0,0,0,0,0,0,0,0,0,0,0,0,0,0,0,0,0,0,0,0,0,0,0,0,3.3337,3.3338,0,3.3397,3.3397,3.3398,3.3344,3.3342,3.3339,3.3337,3.3397,3.34,3.3404,0,0,0,0,0,0,0,0,0,0,0,0,0,3.3175,3.3178,3.3337,3.3338,3.3339,3.3396,3.3397,3.3398,3.3344,3.3342,3.3339,3.3336,3.3395,3.34,3.3404,0,0,0,0,0,0,0,0,0,0,0,0,0,3.3241,3.3179,3.3337,3.3319,3.3318,3.3396,3.3397,3.3398,3.3345,3.3341,3.3338,3.3335,3.3394,3.3399,3.3405,3.3504,0,0,3.3421,3.3424,0,0,0,0,0,0,0,0,3.3237,3.3247,3.3321,3.332,3.3319,3.3359,3.3362,3.3434,3.3346,3.3334,3.3337,3.3334,3.3387,3.3393,3.3411,3.3507,3.3509,3.3422,3.3425,3.3427,3.3429,0,0,0,0,0,0,0,3.3233,3.3244,3.3361,3.3322,3.3321,3.3307,3.3313,3.3375,3.3378,3.3335,3.3331,3.3339,3.3386,3.3406,3.3412,3.351,3.3422,3.3426,3.343,3.3432,3.3688,3.3691,0,0,0,0,0,0,3.323,3.3241,3.3359,3.3362,3.3269,3.3312,3.3319,3.335,3.3377,3.3379,3.3342,3.3336,3.3398,3.3406,3.3414,3.3531,3.3427,3.3432,3.3436,3.3685,3.3689,3.3693,0,0,0,0,0,0,3.3227,3.3241,3.3356,3.33,3.3314,3.3319,3.3354,3.3353,3.3373,3.3383,3.3383,3.3362,3.3396,3.3406,3.3482,3.3532,3.3435,3.344,3.368,3.3686,3.3691,3.3766,0,0,0,0,0,0,3.3223,3.324,3.3279,3.3302,3.3317,3.3424,3.3357,3.3356,3.3382,3.3376,3.3401,3.3403,3.3394,3.3474,3.3487,3.3538,3.3444,3.3676,3.3683,3.3689,3.3759,3.3773,3.3785,0,0,0,0,0,3.3217,3.3298,3.3281,3.3296,3.3365,3.3427,3.3436,3.3425,3.3387,3.3425,3.3431,3.3402,3.3524,3.3482,3.3496,3.355,3.3673,3.3681,3.3689,3.3753,3.3771,3.3785,0,0,0,0,0,0,3.3281,3.3301,3.3282,3.3373,3.3399,3.3418,3.3466,3.3444,3.3481,3.3473,3.3457,3.3463,3.3543,3.3554,3.3506,3.3646,3.3592,3.3603,3.3636,3.3653,3.3666,3.3662,3.3449,0,0,0,0,0,3.3305,3.3355,3.3369,3.3447,3.3461,3.3462,3.3488,3.3477,3.3503,3.3514,3.3525,3.3551,3.3595,3.3624,3.3666,3.376,3.3764,3.3804,3.3817,3.3828,3.3838,3.3887,3.3904,3.3719,3.3719,3.3719,0,0,3.3357,3.3374,3.3406,3.3461,3.3479,3.353,3.3471,3.3527,3.3564,3.3522,3.3594,3.3603,3.3631,3.3716,3.3754,3.3727,3.389,3.3838,3.3846,3.385,3.3897,3.3915,3.393,3.3724,3.3723,3.3722,0,0,3.3476,3.3494,3.3561,3.3581,3.361,3.3609,3.3625,3.3648,3.3652,3.3724,3.3693,3.3736,3.3813,3.3834,3.3854,3.398,3.3954,3.3993,3.4062,3.4111,3.4125,3.4138,3.4182,3.4198,3.4003,3.4003,3.4004,0,3.3536,3.3612,3.3598,3.3657,3.3681,3.3645,3.3712,3.3732,3.3773,3.379,3.376,3.3854,3.387,3.3959,3.399,3.4008,3.4025,3.3991,3.4125,3.4137,3.4149,3.4191,3.4208,3.4008,3.4007,3.4007,3.4007,0,3.3684,3.3736,3.3787,3.3827,3.3857,3.392,3.3915,3.3947,3.3933,3.3935,3.4008,3.4026,3.407,3.409,3.4077,3.4176,3.4159,3.4127,3.4072,3.4172,3.421,3.4226,3.4015,3.4013,3.4012,3.401,0,0,3.3846,3.3877,3.3896,3.3913,3.3942,3.3982,3.4042,3.4085,3.4112,3.4141,3.4191,3.4256,3.4226,3.4249,3.4238,3.428,3.4378,3.4243,3.4243,3.4267,3.4487,3.4511,3.453,3.436,3.4363,3.4366,3.4485,0,3.3966,3.4071,3.406,3.4159,3.4207,3.4173,3.4225,3.4248,3.4251,3.4291,3.4294,3.434,3.4298,3.4312,3.4352,3.4357,3.4421,3.4348,3.4405,3.4407,3.44,3.455,3.4576,3.4688,3.45,3.4502,3.4504,0,3.412,3.4154,3.4259,3.4279,3.4299,3.4346,3.4383,3.4423,3.4447,3.4446,3.4472,3.4453,3.4512,3.4456,3.4537,3.4487,3.4509,3.4515,3.4519,3.4524,3.4462,3.4559,3.4723,3.474,3.4528,3.4526,3.4525,0,3.4227,3.4299,3.4371,3.4387,3.4412,3.4446,3.4458,3.4479,3.4506,3.4538,3.4555,3.4594,3.4615,3.4645,3.4637,3.4597,3.4719,3.4663,3.4719,3.472,3.4747,3.4745,3.4916,3.4762,3.4761,3.4761,3.4761,0,3.4362,3.4427,3.4419,3.4463,3.4534,3.4521,3.4591,3.4599,3.4618,3.4662,3.4635,3.4676,3.4663,3.4704,3.4697,3.4765,3.4774,3.4775,3.4772,3.4777,3.4777,3.4792,3.4784,3.4766,3.4765,3.4764,3.4763,0,3.4493,3.4491,3.4567,3.4584,3.459,3.4642,3.4657,3.4698,3.4698,3.4754,3.4767,3.4768,3.4814,3.4809,3.4861,3.4856,3.4939,3.4928,3.4932,3.4929,3.4986,3.498,3.5172,3.5196,3.5026,3.5028,3.5029,0,3.458,3.4629,3.4652,3.468,3.4694,3.4739,3.4765,3.4753,3.4782,3.4812,3.4849,3.4893,3.4928,3.5004,3.5008,3.5048,3.5036,3.5101,3.5042,3.5045,3.5037,3.5034,3.5038,3.5112,3.5114,3.5116,3.5117,0,3.4733,3.4729,3.4768,3.4807,3.4839,3.4869,3.4896,3.492,3.491,3.4943,3.4991,3.5017,3.507,3.5114,3.5151,3.5162,3.5138,3.5136,3.5151,3.5156,3.5156,3.5156,3.4963,3.5131,3.513,3.5129,3.5128,3.5128,3.4844,3.4886,3.4908,3.4952,3.4971,3.4997,3.5036,3.5041,3.5081,3.5123,3.5113,3.5166,3.5188,3.5235,3.525,3.5291,3.5267,3.5289,3.5294,3.53,3.5307,3.515,3.5297,3.5297,3.5296,3.5296,3.5296,0,3.4995,3.5008,3.5049,3.5087,3.5122,3.5096,3.5124,3.5155,3.5202,3.5225,3.5259,3.5313,3.5355,3.5362,3.5402,3.5433,3.5423,3.5444,3.5441,3.5444,3.5326,3.5309,3.5451,3.5451,3.5451,3.5451,3.5451,3.5451,3.5078,3.5147,3.5145,3.5223,3.5234,3.5287,3.5305,3.5328,3.5346,3.5407,3.5442,3.5447,3.5463,3.5503,3.554,3.5541,3.5557,3.5582,3.5579,3.5468,3.5453,3.5438,3.5422,3.5586,3.5586,3.5694,3.5695,3.5696]}]]